This is the latest recevied weather packets stored in our database for station/object VE3VGJ. If no packets are shown the sender has not sent any weather packets the latest 10 day(s).
| Time | Temp. | Humidity | Pressure | Rain* | Wind** | Luminosity | Snow |
|---|---|---|---|---|---|---|---|
| 1778072790 | 5.56° C | 95% | 1010 hPa | 0 mm | - | 45 W/m² | - |
| 1778072488 | 5.56° C | 95% | 1009.7 hPa | 0 mm | - | 49 W/m² | - |
| 1778072186 | 5.56° C | 95% | 1009.5 hPa | 0 mm | - | 36 W/m² | - |
| 1778071883 | 5.56° C | 95% | 1009.3 hPa | 0 mm | - | 47 W/m² | - |
| 1778071581 | 5.56° C | 95% | 1009.2 hPa | 0 mm | - | 52 W/m² | - |
| 1778071279 | 5.56° C | 95% | 1009.1 hPa | 0 mm | - | 50 W/m² | - |
| 1778070976 | 5.56° C | 95% | 1009.3 hPa | 0 mm | - | 55 W/m² | - |
| 1778070675 | 5.56° C | 95% | 1009.2 hPa | 0 mm | - | 45 W/m² | - |
| 1778070371 | 5.56° C | 95% | 1009.3 hPa | 0 mm | - | 37 W/m² | - |
| 1778070069 | 5.56° C | 95% | 1009.4 hPa | 0 mm | - | 40 W/m² | - |
| 1778069766 | 5.56° C | 95% | 1009.3 hPa | 0 mm | - | 45 W/m² | - |
| 1778069462 | 5.56° C | 95% | 1009.2 hPa | 0 mm | - | 53 W/m² | - |
| 1778069161 | 5.56° C | 95% | 1009.2 hPa | 0 mm | - | 47 W/m² | - |
| 1778068857 | 5.56° C | 95% | 1009 hPa | 0 mm | - | 44 W/m² | - |
| 1778068556 | 5.56° C | 95% | 1009.1 hPa | 0 mm | - | 47 W/m² | - |
| 1778068254 | 5.56° C | 95% | 1009.2 hPa | 0 mm | - | 45 W/m² | - |
| 1778067951 | 5.56° C | 95% | 1009 hPa | 0 mm | - | 37 W/m² | - |
| 1778067649 | 5.56° C | 95% | 1009 hPa | 0 mm | - | 46 W/m² | - |
| 1778067347 | 5.56° C | 95% | 1008.9 hPa | 0 mm | - | 39 W/m² | - |
| 1778067044 | 5.56° C | 95% | 1008.8 hPa | 1.78 mm | - | 39 W/m² | - |
| 1778066740 | 5.56° C | 95% | 1009 hPa | 1.78 mm | - | 40 W/m² | - |
| 1778066438 | 5.56° C | 95% | 1009.4 hPa | 0 mm | - | 23 W/m² | - |
| 1778066136 | 5.56° C | 95% | 1009.2 hPa | 0 mm | - | 20 W/m² | - |
| 1778065832 | 5.56° C | 95% | 1009 hPa | 0 mm | - | 20 W/m² | - |
| 1778065530 | 5.56° C | 95% | 1009.1 hPa | 0 mm | - | 11 W/m² | - |
* Rain latest hour (hover to see other rain measurements)
** Current wind speed in m/s (hover to see current wind gust speed)